Weather History for Cahokia, IL

Change the Weather History Date:

Wednesday, March 6, 2013

  Actual Average Record
Temperature  
Mean Temperature 32 °F -  
Max Temperature 37 °F 35 °F 85 °F (1956)
Min Temperature 28 °F 26 °F 9 °F (1960)
Degree Days  
Heating Degree Days 32    
Moisture  
Dew Point 22 °F    
Average Humidity 65    
Maximum Humidity 75    
Minimum Humidity 57    
Precipitation  
Precipitation 0.00 in - - ()
Sea Level Pressure  
Sea Level Pressure 30.31 in    
Wind  
Wind Speed 17 mph (NW)    
Max Wind Speed 28 mph    
Max Gust Speed 36 mph    
Visibility 10 miles    
Events      
Averages and records for this station are not official NWS values.
T = Trace of Precipitation, MM = Missing Value Source: NWS Daily Summary

Daily Weather History Graph

Daily Weather History Graph

Search for Another Location

Airport:

Trip Planner

Search our weather history database for the weather conditions in past years. The results will help you decide how hot, cold, wet, or windy it might be!

Date:

Astronomy

Mar. 06, 2013 Rise Set
Actual Time 6:25 AM CST 5:59 PM CST
Civil Twilight 5:58 AM CST 6:25 PM CST
Nautical Twilight 5:27 AM CST 6:56 PM CST
Astronomical Twilight 4:57 AM CST 7:27 PM CST
Moon 2:31 AM CST (3/6) 12:43 PM CST (3/6)
Length of Visible Light 12h 26m
Length of Day
11h 33m
Waning Crescent, 29% of the Moon is Illuminated
Mar 6
Waning Crescent
Mar 11
New
Mar 19
First Quarter
Mar 27
Full
Apr 2
Last Quarter

Hourly Weather History & Observations

Time (CST) Temp. Windchill Dew Point Humidity Pressure Visibility Wind Dir Wind Speed Gust Speed Precip Events Conditions
12:02 AM 33.8 °F 23.2 °F 24.8 °F 70% 30.12 in 8.0 mi NW 17.3 mph 27.6 mph N/A   Overcast
12:24 AM 33.8 °F 20.5 °F 23.0 °F 65% 30.13 in 10.0 mi NW 27.6 mph 34.5 mph N/A   Overcast
12:53 AM 33.1 °F 21.2 °F 21.9 °F 64% 30.16 in 10.0 mi NW 20.7 mph 32.2 mph N/A   Overcast
1:53 AM 32.0 °F 19.8 °F 21.0 °F 64% 30.18 in 10.0 mi NNW 20.7 mph 35.7 mph N/A   Overcast
2:53 AM 32.0 °F 19.5 °F 21.9 °F 66% 30.19 in 10.0 mi NW 21.9 mph 27.6 mph N/A   Overcast
3:53 AM 32.0 °F 19.5 °F 21.0 °F 64% 30.21 in 10.0 mi NW 21.9 mph 28.8 mph N/A   Overcast
4:48 AM 32.0 °F 19.5 °F 21.2 °F 64% 30.24 in 10.0 mi NNW 21.9 mph 28.8 mph N/A   Overcast
4:53 AM 32.0 °F 18.9 °F 21.9 °F 66% 30.25 in 10.0 mi NW 24.2 mph 27.6 mph N/A   Overcast
5:04 AM 32.0 °F 20.1 °F 21.2 °F 64% 30.25 in 10.0 mi NW 19.6 mph - N/A   Overcast
5:53 AM 30.9 °F 20.7 °F 21.9 °F 69% 30.28 in 10.0 mi NW 13.8 mph - N/A   Overcast
6:53 AM 30.9 °F 18.7 °F 21.9 °F 69% 30.31 in 10.0 mi NW 19.6 mph 23.0 mph N/A   Overcast
7:53 AM 30.9 °F 20.2 °F 21.9 °F 69% 30.34 in 10.0 mi NW 15.0 mph 24.2 mph N/A   Mostly Cloudy
8:08 AM 32.0 °F 20.8 °F 21.2 °F 64% 30.33 in 10.0 mi NW 17.3 mph 24.2 mph N/A   Mostly Cloudy
8:53 AM 32.0 °F 21.2 °F 21.9 °F 66% 30.35 in 10.0 mi NW 16.1 mph - N/A   Mostly Cloudy
9:26 AM 33.8 °F 23.2 °F 21.2 °F 60% 30.35 in 10.0 mi NNW 17.3 mph 26.5 mph N/A   Overcast
9:53 AM 33.1 °F 23.0 °F 21.9 °F 64% 30.37 in 10.0 mi NW 15.0 mph - N/A   Mostly Cloudy
10:01 AM 33.8 °F 23.2 °F 21.2 °F 60% 30.36 in 10.0 mi NNW 17.3 mph 27.6 mph N/A   Mostly Cloudy
10:28 AM 33.8 °F 23.9 °F 23.0 °F 65% 30.36 in 10.0 mi NNW 15.0 mph - N/A   Scattered Clouds
10:35 AM 33.8 °F 23.5 °F 23.0 °F 65% 30.36 in 10.0 mi NW 16.1 mph - N/A   Mostly Cloudy
10:53 AM 36.0 °F 27.1 °F 24.1 °F 62% 30.37 in 10.0 mi NNW 13.8 mph - N/A   Scattered Clouds
11:53 AM 36.0 °F 28.0 °F 24.1 °F 62% 30.37 in 10.0 mi WNW 11.5 mph 18.4 mph N/A   Overcast
12:53 PM 37.0 °F 29.3 °F 24.1 °F 59% 30.36 in 10.0 mi WNW 11.5 mph 17.3 mph N/A   Overcast
1:53 PM 37.0 °F 28.9 °F 24.1 °F 59% 30.35 in 10.0 mi NNW 12.7 mph - N/A   Scattered Clouds
2:53 PM 37.0 °F 29.3 °F 25.0 °F 62% 30.35 in 10.0 mi NW 11.5 mph 20.7 mph N/A   Mostly Cloudy
3:53 PM 37.0 °F 28.9 °F 24.1 °F 59% 30.36 in 10.0 mi NW 12.7 mph - N/A   Mostly Cloudy
4:53 PM 37.0 °F 30.4 °F 23.0 °F 57% 30.36 in 10.0 mi NNW 9.2 mph - N/A   Partly Cloudy
5:53 PM 35.1 °F 27.9 °F 21.9 °F 59% 30.35 in 10.0 mi NNW 9.2 mph - N/A   Clear
6:53 PM 33.1 °F 26.1 °F 21.9 °F 64% 30.36 in 10.0 mi NNW 8.1 mph - N/A   Clear
7:53 PM 30.9 °F 24.3 °F 21.9 °F 69% 30.35 in 10.0 mi NNW 6.9 mph - N/A   Clear
8:53 PM 30.0 °F 25.2 °F 21.0 °F 69% 30.36 in 10.0 mi NNW 4.6 mph - N/A   Clear
9:53 PM 28.0 °F - 21.0 °F 75% 30.37 in 10.0 mi Calm Calm - N/A   Clear
10:53 PM 28.0 °F - 21.0 °F 75% 30.36 in 10.0 mi Calm Calm - N/A   Clear